| time (UTC) | temp F | wind direction | speed MPH | gust MPH | rain 1hr in | rain 24hr in | rain mn in | humidity % | barometer mb |
| 20260504214551 | 90 | 289 | 14.0 | 31.0 | 0.00 | 0.00 | 0.00 | 12 | 1009.1 |
| 20260504213108 | 91 | 284 | 11.0 | 24.0 | 0.00 | 0.00 | 0.00 | 12 | 1009.1 |
| 20260504211551 | 91 | 290 | 17.0 | 23.0 | 0.00 | 0.00 | 0.00 | 13 | 1009.1 |
| 20260504210101 | 92 | 292 | 14.0 | 24.0 | 0.00 | 0.00 | 0.00 | 13 | 1009.5 |
| 20260504204555 | 91 | 294 | 14.0 | 23.0 | 0.00 | 0.00 | 0.00 | 14 | 1009.8 |
| 20260504203051 | 91 | 281 | 13.0 | 28.0 | 0.00 | 0.00 | 0.00 | 14 | 1010.1 |
| 20260504201556 | 89 | 297 | 15.0 | 25.0 | 0.00 | 0.00 | 0.00 | 14 | 1010.3 |
| 20260504200048 | 89 | 304 | 13.0 | 25.0 | 0.00 | 0.00 | 0.00 | 16 | 1010.6 |
| 20260504194556 | 89 | 288 | 9.0 | 19.0 | 0.00 | 0.00 | 0.00 | 19 | 1010.7 |
| 20260504193059 | 90 | 286 | 15.0 | 23.0 | 0.00 | 0.00 | 0.00 | 20 | 1010.8 |
| 20260504191550 | 89 | 298 | 8.0 | 20.0 | 0.00 | 0.00 | 0.00 | 22 | 1010.9 |
| 20260504190056 | 87 | 250 | 12.0 | 20.0 | 0.00 | 0.00 | 0.00 | 24 | 1011.4 |
| 20260504184555 | 87 | 277 | 8.0 | 16.0 | 0.00 | 0.00 | 0.00 | 22 | 1011.4 |
| 20260504183059 | 87 | 292 | 12.0 | 19.0 | 0.00 | 0.00 | 0.00 | 22 | 1011.6 |
| 20260504181550 | 86 | 304 | 10.0 | 18.0 | 0.00 | 0.00 | 0.00 | 23 | 1011.6 |
| 20260504180122 | 85 | 289 | 9.0 | 18.0 | 0.00 | 0.00 | 0.00 | 24 | 1011.9 |
| 20260504174551 | 86 | 269 | 12.0 | 17.0 | 0.00 | 0.00 | 0.00 | 24 | 1012.2 |
| 20260504173047 | 85 | 292 | 12.0 | 20.0 | 0.00 | 0.00 | 0.00 | 24 | 1012.2 |
| 20260504171553 | 85 | 298 | 12.0 | 18.0 | 0.00 | 0.00 | 0.00 | 24 | 1012.3 |
| 20260504100106 | 62 | 9 | 2.0 | 4.0 | 0.00 | 0.00 | 0.00 | 70 | 1011.2 |
| 20260504081548 | 65 | 279 | 0.0 | 0.0 | 0.00 | 0.00 | 0.00 | 59 | 1011.9 |
| 20260504044552 | 70 | 147 | 3.0 | 8.0 | 0.00 | 0.00 | 0.00 | 55 | 1012.9 |
| 20260504043059 | 69 | 140 | 3.0 | 4.0 | 0.00 | 0.00 | 0.00 | 55 | 1012.8 |
| 20260504041546 | 71 | 132 | 2.0 | 4.0 | 0.00 | 0.00 | 0.00 | 51 | 1013.3 |
| 20260504034555 | 73 | 144 | 0.0 | 5.0 | 0.00 | 0.00 | 0.00 | 45 | 1013.5 |
| 20260504033056 | 72 | 136 | 3.0 | 6.0 | 0.00 | 0.00 | 0.00 | 45 | 1013.1 |
| 20260504031547 | 71 | 119 | 4.0 | 8.0 | 0.00 | 0.00 | 0.00 | 48 | 1013.0 |
| 20260504030050 | 71 | 110 | 3.0 | 8.0 | 0.00 | 0.00 | 0.00 | 51 | 1012.9 |
| 20260504024550 | 68 | 103 | 0.0 | 2.0 | 0.00 | 0.00 | 0.00 | 59 | 1012.7 |
| 20260504023053 | 71 | 103 | 3.0 | 7.0 | 0.00 | 0.00 | 0.00 | 52 | 1012.7 |
| 20260504021548 | 71 | 92 | 3.0 | 6.0 | 0.00 | 0.00 | 0.00 | 51 | 1012.8 |
| 20260504020056 | 73 | 90 | 6.0 | 9.0 | 0.00 | 0.00 | 0.00 | 47 | 1012.8 |
| 20260504014556 | 73 | 116 | 6.0 | 9.0 | 0.00 | 0.00 | 0.00 | 47 | 1012.8 |
| 20260504013050 | 73 | 116 | 2.0 | 7.0 | 0.00 | 0.00 | 0.00 | 48 | 1013.0 |
| 20260504011550 | 73 | 110 | 3.0 | 7.0 | 0.00 | 0.00 | 0.00 | 48 | 1012.9 |
| 20260504010052 | 73 | 103 | 4.0 | 7.0 | 0.00 | 0.00 | 0.00 | 48 | 1012.9 |
| 20260504004548 | 74 | 101 | 1.0 | 2.0 | 0.00 | 0.00 | 0.00 | 50 | 1013.1 |
| 20260504003048 | 76 | 105 | 2.0 | 3.0 | 0.00 | 0.00 | 0.00 | 45 | 1013.3 |
| 20260504001551 | 77 | 103 | 1.0 | 6.0 | 0.00 | 0.00 | 0.00 | 45 | 1013.5 |
| 20260504000053 | 78 | 0 | 0.0 | 4.0 | 0.00 | 0.00 | 0.00 | 43 | 1013.5 |
| 20260503234551 | 80 | 88 | 1.0 | 6.0 | 0.00 | 0.00 | 0.00 | 42 | 1013.4 |
| 20260503233056 | 81 | 104 | 2.0 | 4.0 | 0.00 | 0.00 | 0.00 | 41 | 1013.6 |
| 20260503231548 | 81 | 0 | 0.0 | 3.0 | 0.00 | 0.00 | 0.00 | 31 | 1013.7 |
| 20260503230103 | 82 | 0 | 0.0 | 3.0 | 0.00 | 0.00 | 0.00 | 31 | 1013.7 |
| 20260503224558 | 81 | 0 | 1.0 | 3.0 | 0.00 | 0.00 | 0.00 | 31 | 1014.1 |
| 20260503223054 | 81 | 81 | 1.0 | 4.0 | 0.00 | 0.00 | 0.00 | 34 | 1014.0 |
| 20260503221556 | 81 | 0 | 0.0 | 9.0 | 0.00 | 0.00 | 0.00 | 31 | 1014.3 |
| 20260503220054 | 82 | 261 | 0.0 | 5.0 | 0.00 | 0.00 | 0.00 | 31 | 1014.5 |